When you browse on this site, cookies collect data to enhance your experience and personalize the content and advertising you see.
Visit our Privacy Policy to learn more. By continuing to use the site, you agree to this use of cookies and data.
  • In Austria
  • List of Countries
  • For 7 days
  • Water Temperature
  • Satellite Maps
  • Weather Map
  • News
  • Weather Widgets
  • user-avatar
    Login

    Hourly Weather Neuquén

    Today, 19 April, Friday

    Time Temperature Precipitation Wind Pressure Humidity
    00:00 +19°C° 0 mm 6 mps 731 mmHg 42%
    01:00 +18°C° 0 mm 7 mps 731 mmHg 45%
    02:00 +17°C° 0 mm 6 mps 731 mmHg 47%
    03:00 +16°C° 0 mm 6 mps 731 mmHg 49%
    04:00 +16°C° 0 mm 5 mps 731 mmHg 50%
    05:00 +16°C° 0 mm 5 mps 731 mmHg 49%
    06:00 +17°C° 0 mm 4 mps 731 mmHg 48%
    07:00 +17°C° 0 mm 4 mps 732 mmHg 47%
    08:00 +19°C° 0 mm 4 mps 732 mmHg 42%
    09:00 +21°C° 0 mm 5 mps 732 mmHg 37%
    10:00 +23°C° 0 mm 6 mps 732 mmHg 32%
    11:00 +24°C° 0 mm 6 mps 732 mmHg 30%
    12:00 +26°C° 0 mm 6 mps 732 mmHg 27%
    13:00 +27°C° 0 mm 6 mps 731 mmHg 24%
    14:00 +27°C° 0 mm 6 mps 731 mmHg 23%
    15:00 +27°C° 0 mm 5 mps 731 mmHg 21%
    16:00 +27°C° 0 mm 5 mps 731 mmHg 19%
    17:00 +26°C° 0 mm 4 mps 732 mmHg 20%
    18:00 +23°C° 0 mm 4 mps 732 mmHg 20%
    19:00 +22°C° 0 mm 4 mps 733 mmHg 20%
    20:00 +21°C° 0 mm 5 mps 734 mmHg 23%
    21:00 +20°C° 0 mm 6 mps 734 mmHg 25%
    22:00 +18°C° 0 mm 7 mps 735 mmHg 28%
    23:00 +17°C° 0 mm 6 mps 735 mmHg 31%

    Tomorrow, 20 April, Saturday

    Time Temperature Precipitation Wind Pressure Humidity
    00:00 +16°C° 0 mm 5 mps 736 mmHg 35%
    01:00 +15°C° 0 mm 5 mps 736 mmHg 38%
    02:00 +15°C° 0 mm 4 mps 736 mmHg 41%
    03:00 +14°C° 0 mm 4 mps 737 mmHg 43%
    04:00 +14°C° 0 mm 3 mps 737 mmHg 45%
    05:00 +14°C° 0 mm 3 mps 737 mmHg 47%
    06:00 +13°C° 0 mm 3 mps 737 mmHg 49%
    07:00 +13°C° 0 mm 3 mps 738 mmHg 51%
    08:00 +16°C° 0 mm 3 mps 738 mmHg 46%
    09:00 +18°C° 0 mm 4 mps 738 mmHg 42%
    10:00 +19°C° 0 mm 5 mps 738 mmHg 37%
    11:00 +20°C° 0 mm 5 mps 737 mmHg 34%
    12:00 +21°C° 0 mm 4 mps 737 mmHg 31%
    13:00 +22°C° 0 mm 4 mps 736 mmHg 29%
    14:00 +23°C° 0 mm 4 mps 736 mmHg 28%
    15:00 +23°C° 0 mm 4 mps 735 mmHg 28%
    16:00 +23°C° 0 mm 4 mps 735 mmHg 27%
    17:00 +22°C° 0 mm 3 mps 735 mmHg 29%
    18:00 +20°C° 0 mm 3 mps 735 mmHg 32%
    19:00 +19°C° 0 mm 2 mps 735 mmHg 34%
    20:00 +19°C° 0 mm 2 mps 735 mmHg 35%
    21:00 +18°C° 0 mm 2 mps 735 mmHg 37%
    22:00 +18°C° 0 mm 2 mps 736 mmHg 38%
    23:00 +17°C° 0 mm 2 mps 736 mmHg 40%

    Day after tomorrow, 21 April, Sunday

    Time Temperature Precipitation Wind Pressure Humidity
    00:00 +16°C° 0 mm 2 mps 736 mmHg 41%
    01:00 +16°C° 0 mm 2 mps 735 mmHg 43%
    02:00 +15°C° 0 mm 2 mps 735 mmHg 44%
    03:00 +15°C° 0 mm 1 mps 735 mmHg 46%
    04:00 +14°C° 0 mm 1 mps 735 mmHg 48%
    05:00 +15°C° 0 mm 1 mps 736 mmHg 47%
    06:00 +15°C° 0 mm 1 mps 736 mmHg 46%
    07:00 +16°C° 0 mm 1 mps 737 mmHg 45%
    08:00 +18°C° 0 mm 1 mps 737 mmHg 40%
    09:00 +19°C° 0 mm 2 mps 738 mmHg 35%
    10:00 +21°C° 0 mm 3 mps 738 mmHg 31%
    11:00 +22°C° 0 mm 3 mps 738 mmHg 29%
    12:00 +24°C° 0 mm 3 mps 737 mmHg 28%
    13:00 +24°C° 0 mm 3 mps 737 mmHg 27%
    14:00 +24°C° 0 mm 3 mps 737 mmHg 26%
    15:00 +25°C° 0 mm 3 mps 737 mmHg 26%
    16:00 +25°C° 0 mm 3 mps 737 mmHg 26%
    17:00 +22°C° 0 mm 3 mps 737 mmHg 28%
    18:00 +21°C° 0 mm 3 mps 737 mmHg 31%
    19:00 +20°C° 0 mm 4 mps 737 mmHg 33%
    20:00 +19°C° 0 mm 4 mps 737 mmHg 35%
    21:00 +19°C° 0 mm 3 mps 737 mmHg 36%
    22:00 +18°C° 0 mm 3 mps 738 mmHg 38%
    23:00 +18°C° 0 mm 3 mps 737 mmHg 40%

    22 April, Monday

    Time Temperature Precipitation Wind Pressure Humidity
    00:00 +17°C° 0 mm 3 mps 737 mmHg 41%
    01:00 +16°C° 0 mm 3 mps 737 mmHg 43%
    02:00 +16°C° 0 mm 2 mps 737 mmHg 44%
    03:00 +15°C° 0 mm 2 mps 736 mmHg 46%
    04:00 +15°C° 0 mm 2 mps 736 mmHg 47%
    05:00 +15°C° 0 mm 2 mps 736 mmHg 46%
    06:00 +15°C° 0 mm 2 mps 736 mmHg 45%
    07:00 +16°C° 0 mm 2 mps 736 mmHg 45%
    08:00 +18°C° 0 mm 3 mps 736 mmHg 39%
    09:00 +20°C° 0 mm 4 mps 736 mmHg 33%
    10:00 +23°C° 0 mm 5 mps 737 mmHg 27%
    11:00 +25°C° 0 mm 5 mps 736 mmHg 25%
    12:00 +26°C° 0 mm 5 mps 735 mmHg 23%
    13:00 +27°C° 0 mm 5 mps 735 mmHg 21%
    14:00 +27°C° 0 mm 5 mps 735 mmHg 20%
    15:00 +27°C° 0 mm 5 mps 734 mmHg 20%
    16:00 +27°C° 0 mm 5 mps 734 mmHg 20%
    17:00 +26°C° 0 mm 5 mps 734 mmHg 22%
    18:00 +23°C° 0 mm 5 mps 734 mmHg 25%
    19:00 +22°C° 0 mm 6 mps 735 mmHg 27%
    20:00 +21°C° 0 mm 5 mps 735 mmHg 29%
    21:00 +20°C° 0 mm 5 mps 735 mmHg 31%
    22:00 +20°C° 0 mm 5 mps 735 mmHg 33%
    23:00 +19°C° 0 mm 5 mps 735 mmHg 36%

    23 April, Tuesday

    Time Temperature Precipitation Wind Pressure Humidity
    00:00 +19°C° 0 mm 5 mps 735 mmHg 38%
    01:00 +18°C° 0 mm 4 mps 735 mmHg 40%
    02:00 +18°C° 0 mm 4 mps 734 mmHg 45%
    03:00 +17°C° 0 mm 4 mps 734 mmHg 49%
    04:00 +15°C° 0 mm 4 mps 734 mmHg 53%
    05:00 +15°C° 0 mm 4 mps 734 mmHg 55%
    06:00 +15°C° 0 mm 4 mps 734 mmHg 57%
    07:00 +15°C° 0 mm 4 mps 735 mmHg 59%
    08:00 +17°C° 0 mm 5 mps 735 mmHg 54%
    09:00 +21°C° 0 mm 6 mps 735 mmHg 49%
    10:00 +23°C° 0 mm 7 mps 735 mmHg 45%
    11:00 +23°C° 0 mm 7 mps 735 mmHg 42%
    12:00 +24°C° 0 mm 7 mps 735 mmHg 39%
    13:00 +26°C° 0 mm 7 mps 734 mmHg 36%
    14:00 +26°C° 0 mm 7 mps 734 mmHg 36%
    15:00 +24°C° 0 mm 6 mps 734 mmHg 36%
    16:00 +24°C° 0 mm 6 mps 734 mmHg 36%
    17:00 +24°C° 0 mm 6 mps 734 mmHg 38%
    18:00 +23°C° 0 mm 6 mps 734 mmHg 40%
    19:00 +22°C° 0 mm 6 mps 735 mmHg 42%
    20:00 +22°C° 0 mm 6 mps 735 mmHg 44%
    21:00 +21°C° 0 mm 6 mps 735 mmHg 46%
    22:00 +20°C° 0 mm 6 mps 735 mmHg 48%
    23:00 +20°C° 0 mm 7 mps 735 mmHg 48%

    24 April, Wednesday

    Time Temperature Precipitation Wind Pressure Humidity
    00:00 +18°C° 0 mm 7 mps 735 mmHg 49%
    01:00 +18°C° 0 mm 8 mps 735 mmHg 49%
    02:00 +17°C° 0 mm 7 mps 734 mmHg 52%
    03:00 +17°C° 0 mm 7 mps 734 mmHg 54%
    04:00 +16°C° 0 mm 6 mps 734 mmHg 57%
    05:00 +16°C° 0 mm 6 mps 734 mmHg 58%
    06:00 +16°C° 0 mm 6 mps 735 mmHg 59%
    07:00 +16°C° 0 mm 5 mps 735 mmHg 60%
    08:00 +17°C° 0 mm 6 mps 735 mmHg 55%
    09:00 +20°C° 0 mm 6 mps 735 mmHg 49%
    10:00 +22°C° 0 mm 7 mps 735 mmHg 44%
    11:00 +23°C° 0 mm 7 mps 735 mmHg 40%
    12:00 +24°C° 0 mm 6 mps 734 mmHg 37%
    13:00 +27°C° 0 mm 6 mps 734 mmHg 33%
    14:00 +27°C° 0 mm 6 mps 733 mmHg 33%
    15:00 +27°C° 0 mm 6 mps 733 mmHg 33%
    16:00 +27°C° 0 mm 6 mps 733 mmHg 32%
    17:00 +26°C° 0 mm 6 mps 733 mmHg 35%
    18:00 +23°C° 0 mm 6 mps 733 mmHg 38%
    19:00 +22°C° 0 mm 7 mps 733 mmHg 41%
    20:00 +22°C° 0 mm 7 mps 733 mmHg 42%
    21:00 +21°C° 0 mm 7 mps 733 mmHg 43%
    22:00 +20°C° 0 mm 8 mps 734 mmHg 44%
    23:00 +20°C° 0 mm 7 mps 734 mmHg 45%
    Show more